Wind_Speed
33 32 32 35 36 33 30 34 35 38 43 47 46 43 45 46 48 44 39 41 41 44 45 47 47 49 52 53 55 56 58 61 64 63 62 62 63 63 65 67 67 68 68 68 70 73 74 75 75
35 33 35 35 34 32 28 34 37 39 36 36 40 42 41 44 43 40 37 35 39 40 41 44 45 48 48 50 52 54 55 55 55 54 53 53 53 53 54 56 58 60 61 62 62 61 63 65 65
34 36 34 36 38 33 33 31 33 34 35 38 39 37 37 39 35 32 31 32 35 36 38 40 41 45 45 44 46 48 51 52 50 49 45 45 45 45 46 47 47 50 53 55 55 54 56 59 62
35 33 34 38 39 36 34 34 33 38 33 35 39 36 35 35 30 31 35 35 36 36 36 37 38 40 41 41 43 47 48 47 48 45 40 37 34 27 24 27 38 45 47 46 45 47 47 50 53
37 36 35 41 43 40 42 36 34 37 36 34 43 41 32 34 30 30 35 36 38 38 39 40 40 40 39 39 39 38 41 41 39 38 39 31 25 15 16 24 27 33 39 38 34 36 37 37 41
42 39 37 41 47 44 44 37 39 46 46 40 42 40 37 37 34 31 36 38 41 39 40 40 43 43 40 38 37 36 36 35 31 36 36 37 32 19 17 24 25 27 24 33 36 37 36 39 41
44 38 39 45 53 48 43 42 46 51 54 53 47 43 40 40 36 33 35 36 41 43 43 43 44 44 42 37 36 32 33 31 36 39 41 46 41 33 29 29 29 34 36 36 36 37 39 40 38
44 37 43 50 53 59 46 44 48 50 56 59 50 41 42 45 40 38 36 38 40 44 44 43 43 44 40 35 35 31 30 30 39 41 43 45 40 36 34 30 30 37 37 36 34 31 28 25 33
50 45 47 58 57 62 56 52 52 57 58 59 54 42 43 43 43 39 40 39 39 41 42 42 43 43 40 32 32 29 28 30 38 37 44 36 40 43 35 32 39 40 32 22 16 24 21 17 24
54 52 51 61 63 63 63 59 60 57 63 61 53 41 44 43 43 39 39 38 38 36 41 43 46 46 38 30 27 27 26 27 34 38 43 42 38 45 46 38 41 38 37 31 21 24 19 20 22
63 53 59 62 68 67 65 67 65 60 66 60 52 38 42 43 41 39 39 38 40 38 40 43 46 45 39 31 27 24 27 25 33 41 43 44 41 41 41 49 47 41 41 37 36 21 15 21 21
61 58 60 64 69 65 65 62 64 71 69 70 48 41 44 45 38 39 40 36 40 40 40 44 46 46 41 31 27 22 28 30 42 41 42 44 37 40 40 50 49 46 37 37 31 16 19 15 21
63 66 63 64 69 70 69 66 69 72 69 65 49 42 42 41 36 36 38 36 38 40 40 43 45 46 39 31 28 21 30 34 43 45 49 43 37 47 52 54 53 48 42 37 28 23 20 15 24
72 69 69 68 69 75 77 71 67 67 76 68 51 45 40 39 31 34 36 34 37 39 39 40 42 43 36 32 27 23 31 41 37 43 46 45 44 54 58 54 53 54 45 37 37 32 23 24 27
75 73 71 69 72 76 81 74 72 70 73 66 46 46 37 41 29 32 34 32 35 37 35 38 39 40 36 34 29 23 25 46 43 48 51 53 52 56 54 51 44 36 45 44 41 37 33 33 34
70 72 71 69 72 75 80 72 77 76 66 59 49 45 38 39 30 31 30 32 33 35 32 35 39 39 35 33 32 25 24 50 56 47 59 63 58 53 52 47 37 32 27 37 40 41 39 36 32
74 70 71 68 76 79 81 80 78 76 64 56 49 44 40 34 31 30 29 31 33 31 30 35 37 38 35 30 27 27 27 37 58 62 52 66 66 64 56 48 52 41 36 35 34 35 37 32 35
81 79 76 74 78 80 80 78 72 77 63 57 48 43 39 32 32 30 28 28 31 28 30 30 33 35 32 32 28 24 24 36 51 63 64 60 58 64 68 63 54 55 50 41 41 40 39 33 34
83 81 78 73 77 83 81 73 66 65 60 52 45 42 38 30 32 30 27 26 28 25 27 25 29 32 32 31 30 24 24 31 48 51 66 68 66 60 62 66 64 51 51 55 47 44 42 42 39
82 84 78 80 84 80 81 73 64 54 45 44 42 38 34 30 34 32 27 27 28 27 23 24 27 32 32 28 28 27 21 25 42 52 53 63 65 64 61 64 68 67 57 52 50 47 43 47 45
87 89 85 87 82 81 71 66 52 42 40 38 42 40 29 28 35 35 25 27 26 26 24 23 24 26 30 31 27 27 25 19 29 48 55 52 51 57 56 61 65 65 63 59 54 52 46 53 49
84 84 86 88 78 65 60 47 37 35 38 40 40 33 31 29 36 37 27 26 28 27 24 20 19 25 28 31 27 25 27 23 20 34 53 52 48 45 44 46 58 60 59 58 58 54 55 54 53
79 83 83 80 72 56 53 38 33 39 42 44 43 35 33 28 37 38 32 26 30 28 21 21 21 23 23 27 27 25 24 24 25 21 36 53 48 51 49 45 40 50 52 54 54 55 53 50 51
79 80 79 67 54 45 49 29 41 43 36 41 45 35 30 31 40 39 32 29 31 27 21 20 22 22 25 22 24 24 21 22 23 25 27 36 48 48 46 48 42 43 46 48 56 58 58 53 52
74 77 67 56 40 37 42 32 45 48 39 43 44 36 33 30 39 40 36 32 33 28 23 21 21 22 25 21 22 24 21 19 20 21 25 28 37 42 50 47 44 43 46 48 53 60 62 57 55
72 67 56 47 37 35 40 43 50 51 42 42 45 38 32 31 38 41 37 35 36 32 29 24 22 23 26 25 25 25 24 21 19 17 19 28 30 38 43 46 46 44 48 52 53 56 63 61 62
64 65 47 41 38 39 44 53 51 54 42 41 42 41 35 33 37 42 38 37 37 34 32 29 24 24 26 26 28 27 26 26 23 20 17 19 24 30 35 39 47 46 51 50 53 58 61 64 65
55 49 42 38 41 46 51 58 56 49 44 43 43 43 40 37 38 41 42 39 34 36 31 33 29 28 29 23 28 28 28 24 26 23 19 16 16 21 34 41 35 50 53 54 58 58 61 63 66
44 43 39 43 45 51 53 58 56 50 47 40 39 41 40 38 34 38 44 41 40 37 32 31 34 31 31 28 30 30 30 30 23 21 19 21 20 18 17 30 40 41 44 59 62 61 66 67 67
41 43 41 43 48 54 55 56 52 46 46 43 43 38 34 38 35 38 40 41 36 36 35 35 36 34 30 32 31 33 33 32 28 25 26 21 22 22 22 20 20 31 40 45 51 64 69 70 71
Wind_Direction
253 258 271 272 277 289 301 287 285 286 285 286 284 285 288 288 285 281 280 276 275 272 271 271 271 271 271 271 271 271 270 268 268 267 266 264 263 262 261 258 258 259 261 263 262 261 261 262 262
262 264 268 276 280 288 301 294 290 292 295 294 294 293 292 288 291 288 279 279 275 272 274 276 275 275 277 277 275 273 270 269 268 268 267 264 261 259 258 259 258 258 257 259 259 260 260 261 261
264 263 266 278 285 297 296 303 293 295 294 292 296 298 294 292 292 297 294 287 284 281 278 277 277 277 275 278 276 271 269 269 266 261 258 259 255 254 257 255 256 257 257 258 258 258 259 259 260
263 264 269 281 287 294 307 297 294 297 298 303 304 305 300 297 302 314 306 299 298 294 289 288 288 287 288 283 278 274 268 265 261 257 255 246 245 251 251 258 253 252 250 250 250 254 256 258 259
267 269 275 281 287 292 300 312 298 302 292 300 303 309 303 293 297 306 302 300 300 296 291 291 290 291 289 291 283 277 271 266 257 244 244 222 199 213 250 267 258 254 246 245 242 247 255 262 264
273 273 283 285 288 293 302 302 298 298 302 304 303 299 303 296 297 300 302 299 301 298 294 291 293 297 293 295 290 284 271 263 256 237 227 204 193 181 234 255 276 257 246 237 243 252 263 267 267
274 280 285 285 284 289 303 305 306 306 307 302 299 297 292 304 293 293 297 298 300 302 297 296 295 297 296 297 297 282 274 256 236 229 212 202 198 185 224 239 262 264 263 250 253 256 268 264 262
276 283 285 277 283 290 298 300 301 303 305 305 298 299 290 290 300 291 292 296 296 302 297 298 298 298 300 295 297 282 265 244 227 228 211 196 197 203 204 228 230 265 256 254 267 267 260 256 255
279 281 286 275 284 290 293 299 299 302 308 300 293 296 288 286 297 289 288 295 298 299 296 300 301 304 300 295 295 284 259 238 225 215 198 199 196 202 205 220 231 249 257 252 264 265 250 264 257
278 280 278 280 284 285 294 293 296 297 305 304 290 289 286 283 289 288 283 291 298 294 295 300 302 308 301 292 295 281 246 247 226 209 206 202 197 204 215 219 236 249 257 247 262 259 286 276 269
274 276 276 278 282 284 287 294 293 294 300 307 288 281 279 282 283 286 283 291 296 295 293 299 304 306 303 294 295 275 238 239 224 197 197 194 206 206 202 224 236 248 259 258 252 268 272 280 276
278 279 279 279 282 287 290 289 290 294 302 303 289 271 271 277 279 283 281 289 292 294 300 303 305 304 305 293 296 274 237 227 203 197 198 200 201 210 225 236 239 247 246 258 263 253 272 264 272
278 276 278 282 286 289 287 288 293 296 301 295 282 264 263 267 271 276 277 286 293 295 302 303 300 303 304 294 297 276 236 215 209 208 201 206 216 224 230 236 239 240 245 253 255 257 246 268 282
275 277 278 281 285 286 286 287 291 295 293 292 280 264 259 259 260 268 274 281 284 290 298 296 299 303 303 298 295 273 230 212 212 208 201 202 199 210 220 227 233 243 244 241 254 263 249 268 279
275 276 278 281 280 279 279 285 291 293 291 288 270 264 253 254 247 258 263 274 280 289 292 295 303 307 303 298 297 271 241 213 206 214 202 203 202 209 218 227 236 244 241 241 250 255 253 266 269
270 271 277 279 277 278 281 290 289 290 287 282 268 257 251 251 249 256 260 274 282 291 291 298 305 307 308 306 297 278 262 218 211 212 214 212 212 219 226 225 237 241 241 242 245 254 255 256 264
270 273 272 272 279 281 284 284 284 285 284 275 269 252 245 242 247 254 260 273 280 290 293 302 306 309 312 308 298 288 268 228 217 214 217 216 221 222 228 235 235 239 250 251 248 251 258 267 261
269 270 274 279 278 281 283 284 279 278 275 265 257 245 238 237 242 249 257 273 277 282 294 304 307 318 317 312 308 293 269 240 222 220 219 221 229 232 233 236 245 249 250 250 253 253 255 258 258
271 275 278 279 277 279 281 281 275 276 265 255 245 240 229 234 241 246 252 263 272 280 293 305 313 323 325 316 313 307 275 246 229 226 227 231 229 232 234 239 236 242 254 253 252 244 257 256 246
274 273 275 274 279 284 286 276 271 270 257 248 232 232 218 233 243 245 243 254 264 273 290 297 312 320 323 320 322 320 302 255 235 232 231 233 233 234 234 235 237 237 241 244 241 245 249 244 237
272 273 275 276 283 289 276 266 263 258 249 225 224 218 210 236 243 245 238 248 261 268 282 294 308 314 327 327 327 331 317 285 248 235 235 237 236 235 238 241 242 243 243 238 236 243 247 238 242
274 277 278 280 287 281 263 259 257 226 219 212 217 208 218 227 238 238 234 241 255 263 274 291 297 312 325 331 325 331 334 316 279 244 236 235 233 227 231 242 245 241 239 239 237 239 238 239 246
275 279 281 284 288 265 257 251 233 205 208 206 205 207 217 220 234 232 232 236 251 258 265 281 291 308 320 332 331 326 337 327 310 278 248 238 234 231 236 240 249 240 241 234 228 231 239 245 246
276 278 282 284 273 259 252 243 215 196 198 199 202 202 209 224 225 231 232 236 246 254 257 273 286 298 308 327 338 337 326 340 325 296 273 248 235 238 235 240 243 242 233 234 230 230 233 239 244
277 280 283 279 266 246 246 218 203 190 200 205 199 196 203 218 223 227 229 231 243 251 252 261 279 292 304 312 321 336 334 317 327 317 280 275 250 242 240 239 244 239 232 233 235 231 234 239 239
277 281 280 274 252 228 229 189 198 194 205 213 203 198 210 212 220 227 228 230 242 249 251 256 273 287 298 306 311 318 324 326 310 314 307 271 267 255 246 240 247 244 232 232 235 237 236 239 242
271 278 270 259 231 213 214 182 194 199 207 213 215 201 214 216 221 228 232 231 237 250 257 256 267 286 293 298 308 312 314 314 325 302 311 323 276 258 249 250 246 249 238 240 244 241 241 246 249
270 261 259 237 217 211 210 189 195 200 202 211 215 207 213 214 216 232 238 240 241 252 259 256 265 283 287 287 294 301 307 311 314 324 303 305 326 282 256 252 251 245 248 244 244 246 248 249 250
254 248 239 220 213 209 210 196 199 206 216 218 219 218 211 216 216 225 238 242 245 251 255 258 262 272 279 284 287 293 295 303 306 316 323 316 303 295 298 265 257 256 249 248 251 253 252 254 256
227 227 219 215 214 206 203 199 205 211 220 217 223 225 219 214 216 224 230 237 239 245 252 258 261 267 277 277 284 288 291 292 297 297 304 311 326 304 291 284 283 266 260 256 252 251 255 259 261
Height
10797 10796 10794 10791 10791 10792 10792 10791 10787 10783 10778 10774 10775 10777 10775 10769 10764 10770 10770 10766 10763 10761 10759 10758 10756 10754 10752 10752 10750 10750 10750 10751 10753 10756 10760 10763 10767 10771 10776 10778 10780 10780 10781 10782 10786 10790 10791 10793 10795
10790 10789 10788 10783 10784 10785 10786 10785 10781 10778 10775 10771 10767 10767 10768 10762 10758 10757 10758 10757 10755 10753 10752 10750 10747 10746 10744 10743 10741 10740 10738 10740 10742 10744 10747 10749 10750 10753 10757 10760 10764 10766 10768 10770 10772 10775 10778 10780 10781
10782 10781 10781 10778 10775 10779 10780 10781 10775 10773 10771 10766 10763 10762 10760 10754 10752 10751 10750 10748 10747 10745 10744 10742 10740 10737 10737 10735 10732 10730 10728 10729 10730 10731 10734 10736 10738 10740 10744 10747 10751 10753 10756 10758 10762 10764 10766 10768 10769
10774 10774 10775 10770 10769 10770 10770 10773 10772 10767 10764 10760 10755 10757 10752 10747 10747 10746 10742 10740 10738 10737 10735 10732 10730 10728 10726 10725 10723 10720 10717 10717 10718 10722 10724 10725 10730 10733 10738 10738 10740 10742 10745 10748 10752 10755 10756 10758 10760
10766 10767 10768 10763 10761 10762 10763 10766 10764 10759 10759 10757 10750 10749 10746 10742 10742 10741 10738 10736 10734 10731 10728 10724 10721 10720 10717 10715 10712 10709 10705 10705 10707 10710 10712 10717 10720 10724 10731 10731 10734 10736 10739 10741 10745 10748 10749 10752 10753
10757 10760 10761 10757 10748 10754 10757 10760 10757 10752 10751 10753 10748 10745 10739 10733 10734 10733 10729 10727 10726 10724 10722 10718 10715 10711 10707 10706 10702 10698 10695 10698 10697 10697 10702 10708 10712 10712 10718 10729 10728 10731 10735 10736 10740 10743 10744 10748 10749
10747 10754 10755 10750 10738 10743 10751 10751 10747 10744 10738 10741 10742 10741 10735 10726 10727 10726 10724 10720 10718 10715 10713 10711 10708 10704 10700 10698 10693 10689 10687 10689 10687 10686 10695 10698 10699 10702 10713 10718 10723 10725 10729 10733 10735 10738 10740 10743 10743
10739 10748 10745 10737 10732 10730 10743 10741 10740 10737 10731 10727 10731 10731 10727 10720 10719 10716 10716 10715 10712 10709 10704 10702 10699 10696 10692 10691 10685 10680 10680 10682 10679 10682 10690 10696 10697 10699 10706 10715 10719 10716 10721 10729 10732 10733 10734 10739 10736
10730 10737 10737 10720 10724 10722 10728 10731 10728 10727 10726 10720 10719 10724 10719 10714 10712 10708 10705 10706 10705 10701 10697 10694 10691 10688 10683 10682 10677 10672 10673 10672 10672 10678 10686 10689 10692 10694 10700 10706 10709 10710 10718 10726 10727 10728 10732 10732 10730
10719 10725 10724 10711 10711 10711 10716 10719 10718 10715 10715 10710 10710 10714 10709 10707 10705 10703 10698 10698 10698 10695 10691 10687 10683 10679 10675 10673 10670 10666 10667 10668 10668 10674 10681 10684 10689 10695 10695 10700 10702 10706 10711 10722 10724 10726 10730 10726 10724
10704 10715 10709 10703 10696 10702 10706 10705 10704 10703 10704 10700 10699 10703 10700 10697 10697 10696 10691 10689 10688 10687 10684 10680 10675 10671 10667 10665 10663 10661 10661 10665 10665 10672 10677 10680 10686 10691 10692 10695 10697 10702 10705 10712 10720 10722 10726 10726 10722
10694 10699 10696 10691 10685 10689 10692 10692 10695 10691 10690 10689 10691 10693 10690 10687 10686 10687 10683 10682 10680 10679 10676 10670 10666 10661 10659 10657 10656 10655 10656 10661 10664 10670 10674 10679 10685 10689 10688 10692 10693 10698 10702 10705 10712 10717 10721 10722 10716
10682 10678 10683 10683 10675 10674 10676 10681 10679 10678 10674 10676 10677 10683 10681 10681 10677 10678 10676 10674 10672 10671 10668 10665 10659 10654 10651 10649 10648 10649 10650 10655 10660 10665 10671 10675 10681 10683 10686 10685 10687 10691 10698 10704 10708 10711 10715 10718 10715
10661 10667 10669 10672 10668 10658 10658 10667 10667 10664 10652 10663 10667 10670 10672 10673 10672 10670 10670 10669 10667 10665 10664 10660 10655 10649 10644 10642 10641 10642 10645 10649 10654 10660 10665 10668 10671 10675 10676 10679 10683 10687 10694 10699 10701 10706 10709 10713 10713
10646 10651 10657 10659 10656 10648 10631 10657 10655 10654 10643 10647 10653 10657 10661 10662 10665 10664 10664 10663 10661 10660 10658 10654 10649 10643 10638 10634 10633 10634 10637 10641 10647 10652 10657 10660 10663 10666 10669 10673 10677 10682 10688 10692 10695 10699 10701 10708 10708
10631 10637 10646 10645 10635 10631 10619 10646 10636 10634 10635 10638 10642 10646 10649 10651 10654 10655 10657 10655 10654 10652 10650 10647 10642 10638 10632 10628 10624 10624 10628 10632 10639 10644 10649 10652 10655 10658 10661 10666 10671 10676 10680 10685 10688 10692 10695 10701 10699
10618 10622 10627 10629 10618 10613 10610 10626 10627 10614 10622 10629 10631 10635 10638 10641 10644 10647 10649 10647 10645 10644 10642 10640 10635 10630 10627 10623 10619 10616 10616 10621 10627 10634 10639 10644 10648 10653 10656 10657 10662 10669 10673 10678 10681 10685 10687 10693 10693
10599 10606 10612 10617 10605 10594 10597 10599 10607 10601 10606 10615 10620 10623 10629 10632 10635 10639 10641 10640 10638 10638 10636 10634 10630 10625 10620 10615 10613 10610 10608 10609 10616 10622 10627 10634 10640 10645 10648 10651 10655 10660 10667 10670 10675 10679 10680 10684 10688
10583 10588 10595 10595 10584 10582 10574 10581 10588 10588 10591 10604 10611 10614 10620 10622 10626 10630 10634 10634 10632 10633 10631 10628 10625 10620 10616 10610 10607 10603 10601 10601 10606 10611 10617 10621 10628 10634 10639 10642 10649 10654 10655 10661 10667 10671 10672 10677 10681
10566 10570 10573 10573 10568 10560 10569 10570 10573 10574 10581 10593 10599 10605 10611 10614 10618 10622 10627 10627 10627 10627 10625 10623 10619 10615 10612 10606 10602 10596 10594 10595 10597 10602 10606 10611 10617 10626 10631 10634 10641 10646 10649 10651 10657 10661 10665 10667 10673
10550 10552 10552 10552 10554 10550 10546 10553 10557 10562 10572 10582 10588 10596 10602 10607 10611 10613 10619 10619 10620 10620 10619 10617 10615 10611 10608 10601 10597 10592 10588 10589 10591 10594 10597 10601 10608 10615 10622 10626 10630 10634 10639 10643 10647 10652 10656 10658 10662
10534 10531 10533 10534 10540 10534 10530 10541 10550 10552 10562 10570 10580 10589 10592 10598 10603 10603 10610 10612 10613 10614 10614 10613 10611 10608 10603 10599 10594 10589 10583 10582 10585 10587 10588 10594 10600 10606 10612 10616 10619 10623 10627 10632 10638 10643 10646 10649 10653
10513 10514 10514 10518 10520 10517 10518 10531 10537 10544 10551 10560 10568 10576 10582 10589 10595 10595 10602 10605 10606 10607 10608 10608 10606 10603 10600 10598 10592 10588 10583 10578 10576 10578 10581 10584 10593 10599 10604 10609 10610 10612 10616 10621 10627 10632 10634 10639 10642
10496 10495 10495 10499 10504 10509 10505 10525 10526 10535 10541 10548 10556 10566 10573 10580 10584 10586 10592 10597 10598 10600 10601 10601 10599 10598 10597 10595 10591 10587 10583 10579 10574 10573 10573 10577 10585 10589 10595 10598 10602 10603 10605 10611 10616 10621 10625 10629 10632
10478 10476 10480 10484 10492 10501 10499 10519 10519 10525 10530 10537 10546 10556 10563 10571 10576 10579 10584 10589 10590 10592 10594 10594 10594 10594 10592 10592 10590 10587 10584 10580 10577 10572 10571 10572 10577 10581 10585 10589 10592 10595 10598 10601 10606 10611 10616 10619 10622
10462 10462 10466 10471 10480 10487 10493 10514 10512 10512 10516 10526 10538 10548 10555 10562 10567 10569 10575 10580 10582 10585 10587 10588 10588 10588 10587 10586 10586 10586 10584 10580 10576 10574 10571 10570 10571 10574 10577 10580 10583 10587 10590 10593 10597 10600 10605 10608 10611
10446 10449 10453 10461 10467 10477 10486 10497 10494 10496 10509 10518 10529 10541 10545 10549 10557 10561 10567 10572 10575 10577 10580 10580 10582 10581 10581 10580 10580 10581 10580 10578 10576 10572 10569 10566 10565 10568 10572 10575 10578 10580 10583 10586 10588 10590 10593 10596 10600
10431 10434 10442 10449 10459 10469 10476 10488 10488 10497 10499 10505 10518 10530 10535 10540 10549 10554 10558 10565 10569 10570 10573 10573 10575 10575 10575 10575 10573 10573 10574 10573 10571 10569 10567 10565 10563 10562 10563 10566 10569 10571 10574 10577 10578 10580 10582 10583 10586
10419 10423 10433 10441 10451 10460 10468 10479 10484 10491 10494 10503 10511 10519 10525 10533 10542 10549 10551 10556 10559 10562 10564 10566 10568 10569 10569 10569 10568 10568 10568 10568 10567 10565 10564 10563 10562 10560 10559 10559 10560 10561 10563 10565 10566 10568 10570 10571 10573
10408 10414 10421 10432 10442 10452 10460 10470 10476 10483 10486 10494 10497 10510 10524 10530 10534 10539 10541 10544 10548 10553 10556 10558 10560 10562 10563 10561 10561 10562 10562 10563 10562 10559 10559 10559 10557 10555 10554 10554 10554 10553 10553 10554 10555 10556 10558 10558 10558